{"data":{"norad_id":56746,"epoch":"2026-09-20T05:29:37.790304Z","epoch_age_seconds":220191,"freshness":"STALE","line1":"1 56746U 23072D   26263.22890961  .01215282  10219-2  10526-2 0  9990","line2":"2 56746  97.4565 128.1166 0003215 216.2214 143.8854 16.13545135185900","mean_motion":16.13545135,"eccentricity":0.0003215,"inclination_deg":97.4565,"raan_deg":128.1166,"arg_perigee_deg":216.2214,"mean_anomaly_deg":143.8854,"bstar":0.0010526,"rev_number":18590,"period_min":89.244482150789,"perigee_km":235.00905386081,"apogee_km":239.26267431242,"semimajor_km":6615.2728640866,"source":"CELESTRAK","updated_at":"2026-09-22T09:00:25.905618Z"}}